Mattoon, IL

2:15 AM CDT on October 23, 2019 (GMT -0500)
Coles County Memorial

Weather History for KMTO - May, 2019

Change the Weather History Date:

Wednesday, May 15, 2019

  Actual Average Record
Temperature  
Mean Temperature 64 °F 63 °F  
Max Temperature 72 °F 73 °F 89 °F (1988)
Min Temperature 56 °F 53 °F 38 °F (1973)
Degree Days  
Heating Degree Days 1 4  
Month to date heating degree days 112 82  
Since 1 July heating degree days 5499 5344  
Cooling Degree Days 0 2  
Month to date cooling degree days 5 21  
Year to date cooling degree days 10 35  
Growing Degree Days 14 (Base 50)    
Moisture  
Dew Point 54 °F    
Average Humidity 75    
Maximum Humidity 90    
Minimum Humidity 60    
Precipitation  
Precipitation T in 0.15 in 1.72 in (2018)
Month to date precipitation 0.81 2.28  
Year to date precipitation 9.83 12.26  
Sea Level Pressure  
Sea Level Pressure 29.96 in    
Wind  
Wind Speed 7 mph (South)    
Max Wind Speed 13 mph    
Max Gust Speed 19 mph    
Visibility 10 miles    
Events Rain    
T = Trace of Precipitation, MM = Missing Value Source: NWS Daily Summary

Daily Weather History Graph

Daily Weather History Graph

Search for Another Location

Airport or City:

Astronomy

May. 15, 2019 Rise Set
Actual Time 5:39 AM CDT 8:00 PM CDT
Civil Twilight 5:09 AM CDT 8:30 PM CDT
Nautical Twilight 4:31 AM CDT 9:08 PM CDT
Astronomical Twilight 3:50 AM CDT 9:49 PM CDT
Moon 4:31 PM CDT (5/15) 4:03 AM CDT (5/15)
Length of Visible Light 15h 21m
Length of Day
14h 20m
Waxing Gibbous, 87% of the Moon is Illuminated
May 15
Waxing Gibbous
May 18
Full
May 26
Last Quarter
Jun 3
New
Jun 10
First Quarter

Hourly Weather History & Observations

Time (CDT) Temp. Dew Point Humidity Pressure Visibility Wind Dir Wind Speed Gust Speed Precip Events Conditions
12:53 AM 60.1 °F 46.0 °F 60% 29.98 in 10.0 mi South 5.8 mph - N/A   Overcast
1:53 AM 59.0 °F 46.9 °F 64% 29.96 in 10.0 mi SSW 5.8 mph - N/A   Overcast
2:53 AM 57.0 °F 48.9 °F 74% 29.96 in 10.0 mi Calm Calm - N/A   Overcast
3:53 AM 57.9 °F 48.9 °F 72% 29.95 in 10.0 mi SSE 3.5 mph - 0.00 in Rain Light Rain
4:53 AM 57.0 °F 50.0 °F 77% 29.94 in 10.0 mi SSE 6.9 mph - 0.00 in   Overcast
5:53 AM 57.0 °F 50.0 °F 77% 29.96 in 10.0 mi NNE 5.8 mph - N/A   Overcast
6:53 AM 57.9 °F 48.9 °F 72% 29.96 in 10.0 mi SSE 8.1 mph - 0.00 in   Overcast
7:06 AM 57.9 °F 48.9 °F 72% 29.97 in 10.0 mi SSE 6.9 mph - N/A   Overcast
7:32 AM 57.9 °F 48.9 °F 72% 29.98 in 10.0 mi SSE 8.1 mph - N/A   Overcast
7:53 AM 57.9 °F 48.9 °F 72% 29.98 in 10.0 mi SSE 8.1 mph - N/A   Overcast
8:53 AM 60.1 °F 52.0 °F 75% 29.98 in 10.0 mi SSE 8.1 mph - N/A   Overcast
9:53 AM 62.1 °F 54.0 °F 75% 29.98 in 10.0 mi SSE 9.2 mph - N/A   Clear
10:53 AM 66.0 °F 57.0 °F 73% 29.97 in 10.0 mi SSE 8.1 mph - N/A   Mostly Cloudy
11:27 AM 66.0 °F 57.0 °F 73% 29.98 in 10.0 mi South 5.8 mph - N/A   Overcast
11:53 AM 66.0 °F 57.0 °F 73% 29.98 in 10.0 mi South 6.9 mph - N/A   Overcast
12:53 PM 66.9 °F 57.9 °F 73% 29.97 in 10.0 mi South 9.2 mph - N/A   Overcast
1:38 PM 68.0 °F 57.9 °F 70% 29.97 in 10.0 mi SSE 9.2 mph - N/A   Overcast
1:53 PM 68.0 °F 59.0 °F 73% 29.96 in 10.0 mi SSW 6.9 mph - N/A   Overcast
2:53 PM 70.0 °F 59.0 °F 68% 29.95 in 10.0 mi Variable 6.9 mph - N/A   Mostly Cloudy
3:53 PM 71.1 °F 57.0 °F 61% 29.94 in 10.0 mi Variable 6.9 mph - N/A   Overcast
4:53 PM 71.1 °F 57.0 °F 61% 29.94 in 10.0 mi South 6.9 mph - N/A   Mostly Cloudy
5:53 PM 71.1 °F 57.9 °F 63% 29.93 in 10.0 mi South 6.9 mph - N/A   Partly Cloudy
6:53 PM 70.0 °F 57.9 °F 65% 29.93 in 10.0 mi South 6.9 mph - N/A   Clear
7:53 PM 66.9 °F 57.9 °F 73% 29.94 in 10.0 mi South 5.8 mph - N/A   Clear
8:53 PM 64.0 °F 57.9 °F 80% 29.95 in 10.0 mi South 6.9 mph - N/A   Clear
9:53 PM 62.1 °F 57.9 °F 86% 29.96 in 10.0 mi South 5.8 mph - N/A   Clear
10:53 PM 61.0 °F 57.9 °F 90% 29.96 in 9.0 mi South 6.9 mph - N/A   Clear
11:53 PM 60.1 °F 57.9 °F 93% 29.96 in 7.0 mi South 9.2 mph - N/A   Clear